Simultaneous Nadir Overpasses (SNOs) Predictions

Prediction of SNOs between GOES-16 and METOP-B Satellite Orbit:

Table of predicted SNOs for the next 14.0 days since TLE Epoch: 1/11/2019
Index Date Time (GOES-16) GOES-16 Lat,Lon METOP-B Lat,Lon Distance(km) Time Diff (sec)
1 01/13/2019 02:35:05 -0.02, -75.19 -0.38, -76.90 193.43 80
2 01/14/2019 02:17:06 -0.03, -75.19 0.74, -71.90 375.79 80
3 01/15/2019 14:33:19 0.02, -75.20 0.30, -76.46 143.21 80
4 01/16/2019 14:15:20 0.03, -75.20 -0.82, -71.47 426.11 80
5 01/18/2019 02:31:41 -0.02, -75.20 -0.23, -76.06 97.81 80
6 01/19/2019 02:13:43 -0.03, -75.20 0.89, -71.07 471.59 80
7 01/20/2019 14:29:55 0.03, -75.21 0.15, -75.62 47.19 80
8 01/23/2019 02:28:18 -0.04, -75.22 -0.07, -75.22 3.23 80
9 01/25/2019 14:29:13 0.05, -75.25 -0.07, -74.80 52.21 80




NCC Satellite Simultaneous Nadir Overpasses (SNOs) Prediction Service
